TimeCST,TemperatureF,Dew PointF,Humidity,Sea Level PressureIn,VisibilityMPH,Wind Direction,Wind SpeedMPH,Gust SpeedMPH,PrecipitationIn,Events,Conditions,WindDirDegrees,DateUTC
12:15 AM,18.1,16.9,95,29.62,0.2,Calm,Calm,-,N/A,Fog,Light Freezing Fog,0,2014-02-19 06:15:00
12:35 AM,16.3,14.5,93,29.62,0.2,Calm,Calm,-,N/A,Fog,Light Freezing Fog,0,2014-02-19 06:35:00
12:55 AM,15.8,13.8,92,29.63,2.0,Calm,Calm,-,N/A,,Clear,0,2014-02-19 06:55:00
1:15 AM,15.8,13.8,92,29.63,3.0,Calm,Calm,-,N/A,,Clear,0,2014-02-19 07:15:00
1:35 AM,14.0,11.8,91,29.63,0.8,Calm,Calm,-,N/A,,Mist,0,2014-02-19 07:35:00
1:55 AM,12.6,10.6,92,29.64,0.5,Calm,Calm,-,N/A,Fog,Light Freezing Fog,0,2014-02-19 07:55:00
2:15 AM,11.8,9.5,90,29.64,0.5,Calm,Calm,-,N/A,Fog,Light Freezing Fog,0,2014-02-19 08:15:00
2:35 AM,10.6,8.4,91,29.65,0.5,Calm,Calm,-,N/A,Fog,Light Freezing Fog,0,2014-02-19 08:35:00
2:55 AM,9.5,7.0,90,29.65,0.5,Calm,Calm,-,N/A,Fog,Light Freezing Fog,0,2014-02-19 08:55:00
3:15 AM,9.1,6.4,89,29.66,0.2,Calm,Calm,-,N/A,Fog,Light Freezing Fog,0,2014-02-19 09:15:00
3:35 AM,8.8,6.1,89,29.66,0.2,Calm,Calm,-,N/A,Fog,Light Freezing Fog,0,2014-02-19 09:35:00
3:55 AM,6.1,3.2,88,29.67,0.2,Calm,Calm,-,N/A,Fog,Light Freezing Fog,0,2014-02-19 09:55:00
4:15 AM,5.7,2.7,87,29.67,4.0,Calm,Calm,-,N/A,,Clear,0,2014-02-19 10:15:00
4:35 AM,6.1,3.0,87,29.68,0.8,Calm,Calm,-,N/A,,Mist,0,2014-02-19 10:35:00
4:55 AM,4.6,1.6,87,29.68,0.5,Calm,Calm,-,N/A,Fog,Light Freezing Fog,0,2014-02-19 10:55:00
5:15 AM,5.2,2.3,88,29.69,0.2,Calm,Calm,-,N/A,Fog,Light Freezing Fog,0,2014-02-19 11:15:00
5:35 AM,5.9,2.8,87,29.69,0.2,Calm,Calm,-,N/A,Fog,Light Freezing Fog,0,2014-02-19 11:35:00
5:55 AM,9.9,7.5,90,29.70,0.5,Calm,Calm,-,N/A,Fog,Light Freezing Fog,0,2014-02-19 11:55:00
6:15 AM,9.0,6.1,88,29.70,2.5,Calm,Calm,-,N/A,,Clear,0,2014-02-19 12:15:00
6:35 AM,10.6,8.1,90,29.71,3.0,Calm,Calm,-,N/A,,Clear,0,2014-02-19 12:35:00
6:55 AM,9.7,7.2,90,29.71,1.8,West,3.5,-,N/A,,Mist,270,2014-02-19 12:55:00
7:15 AM,11.3,9.0,90,29.72,2.0,West,3.5,-,N/A,,Clear,260,2014-02-19 13:15:00
7:35 AM,15.6,13.6,92,29.73,5.0,Calm,Calm,-,N/A,,Clear,0,2014-02-19 13:35:00
7:55 AM,16.7,14.9,93,29.74,7.0,Calm,Calm,-,N/A,,Clear,0,2014-02-19 13:55:00
8:15 AM,18.1,16.3,93,29.74,10.0,West,6.9,-,N/A,,Clear,270,2014-02-19 14:15:00
8:35 AM,19.8,18.1,93,29.75,10.0,West,8.1,-,N/A,,Clear,270,2014-02-19 14:35:00
8:55 AM,21.7,20.3,94,29.76,10.0,West,5.8,-,N/A,,Clear,270,2014-02-19 14:55:00
9:15 AM,22.6,21.2,94,29.76,10.0,West,6.9,-,N/A,,Clear,260,2014-02-19 15:15:00
9:35 AM,23.7,22.6,96,29.77,10.0,West,5.8,-,N/A,,Clear,260,2014-02-19 15:35:00
9:55 AM,25.2,23.9,95,29.78,10.0,West,5.8,-,N/A,,Clear,260,2014-02-19 15:55:00
10:15 AM,26.6,24.6,92,29.78,10.0,WSW,5.8,-,N/A,,Clear,240,2014-02-19 16:15:00
10:35 AM,30.6,21.4,69,29.78,10.0,WSW,3.5,-,N/A,,Clear,240,2014-02-19 16:35:00
10:55 AM,32.4,20.8,63,29.78,10.0,SW,3.5,-,N/A,,Clear,230,2014-02-19 16:55:00
11:15 AM,34.3,20.5,57,29.78,10.0,WSW,6.9,-,N/A,,Clear,240,2014-02-19 17:15:00
11:35 AM,36.5,19.8,51,29.78,10.0,WSW,10.4,-,N/A,,Clear,250,2014-02-19 17:35:00
11:55 AM,37.2,21.0,52,29.78,10.0,SW,8.1,-,N/A,,Clear,230,2014-02-19 17:55:00
12:15 PM,37.6,21.0,51,29.77,10.0,SW,8.1,-,N/A,,Clear,230,2014-02-19 18:15:00
12:35 PM,37.4,21.9,54,29.78,10.0,SW,10.4,-,N/A,,Clear,220,2014-02-19 18:35:00
12:55 PM,37.8,21.9,53,29.78,10.0,SW,8.1,-,N/A,,Clear,230,2014-02-19 18:55:00
1:15 PM,37.8,21.4,52,29.78,10.0,SW,11.5,-,N/A,,Clear,230,2014-02-19 19:15:00
1:35 PM,37.6,21.7,53,29.78,10.0,SW,10.4,-,N/A,,Clear,230,2014-02-19 19:35:00
1:55 PM,37.6,21.7,53,29.78,10.0,SW,12.7,16.1,N/A,,Clear,230,2014-02-19 19:55:00
2:15 PM,37.8,22.1,53,29.78,10.0,SW,9.2,-,N/A,,Clear,220,2014-02-19 20:15:00
2:35 PM,38.1,23.0,55,29.78,10.0,SW,9.2,-,N/A,,Clear,230,2014-02-19 20:35:00
2:55 PM,38.5,22.8,53,29.78,10.0,SW,9.2,-,N/A,,Clear,230,2014-02-19 20:55:00
3:15 PM,39.4,23.0,52,29.79,10.0,SW,10.4,-,N/A,,Clear,220,2014-02-19 21:15:00
3:35 PM,39.4,23.0,52,29.79,10.0,SW,9.2,-,N/A,,Clear,230,2014-02-19 21:35:00
3:55 PM,39.4,23.7,54,29.80,10.0,SW,10.4,-,N/A,,Clear,230,2014-02-19 21:55:00
4:15 PM,38.8,24.8,57,29.80,10.0,SW,5.8,-,N/A,,Clear,230,2014-02-19 22:15:00
4:35 PM,39.0,25.5,58,29.80,10.0,SW,6.9,-,N/A,,Clear,230,2014-02-19 22:35:00
4:55 PM,37.4,25.3,62,29.81,10.0,SW,3.5,-,N/A,,Clear,230,2014-02-19 22:55:00
5:15 PM,36.3,25.2,64,29.81,10.0,Calm,Calm,-,N/A,,Clear,0,2014-02-19 23:15:00
5:35 PM,36.0,26.1,67,29.81,10.0,Calm,Calm,-,N/A,,Clear,0,2014-02-19 23:35:00
5:55 PM,32.4,25.2,75,29.82,10.0,Calm,Calm,-,N/A,,Clear,0,2014-02-19 23:55:00
6:15 PM,30.4,24.8,80,29.82,10.0,Calm,Calm,-,N/A,,Clear,0,2014-02-20 00:15:00
6:35 PM,27.0,23.4,86,29.82,10.0,Calm,Calm,-,N/A,,Clear,0,2014-02-20 00:35:00
6:55 PM,25.7,23.4,91,29.82,10.0,Calm,Calm,-,N/A,,Clear,0,2014-02-20 00:55:00
7:15 PM,25.0,22.5,90,29.81,10.0,Calm,Calm,-,N/A,,Clear,0,2014-02-20 01:15:00
7:35 PM,24.4,22.1,91,29.81,10.0,Calm,Calm,-,N/A,,Clear,0,2014-02-20 01:35:00
7:55 PM,25.0,23.0,92,29.81,10.0,Calm,Calm,-,N/A,,Clear,0,2014-02-20 01:55:00
8:15 PM,22.6,20.8,93,29.81,10.0,Calm,Calm,-,N/A,,Clear,0,2014-02-20 02:15:00
8:35 PM,23.7,22.3,94,29.80,10.0,Calm,Calm,-,N/A,,Clear,0,2014-02-20 02:35:00
8:55 PM,25.2,22.8,91,29.80,10.0,Calm,Calm,-,N/A,,Mostly Cloudy,0,2014-02-20 02:55:00
9:15 PM,23.7,21.6,91,29.81,10.0,Calm,Calm,-,N/A,,Overcast,0,2014-02-20 03:15:00
9:35 PM,24.3,21.9,91,29.80,5.0,Calm,Calm,-,N/A,,Overcast,0,2014-02-20 03:35:00
10:15 PM,26.1,23.0,88,29.80,10.0,Calm,Calm,-,N/A,,Overcast,0,2014-02-20 04:15:00
10:22 PM,26.6,23.0,86,29.81,10.0,Calm,Calm,-,N/A,,Overcast,0,2014-02-20 04:22:00
10:35 PM,29.3,23.5,79,29.81,10.0,Calm,Calm,-,N/A,,Overcast,0,2014-02-20 04:35:00
10:55 PM,30.0,23.5,77,29.81,10.0,SSE,3.5,-,N/A,,Overcast,150,2014-02-20 04:55:00
11:15 PM,31.8,23.0,70,29.81,10.0,SSE,3.5,-,N/A,,Mostly Cloudy,160,2014-02-20 05:15:00
11:16 PM,32.0,23.0,69,29.81,10.0,SSE,3.5,-,N/A,,Mostly Cloudy,160,2014-02-20 05:16:00
11:35 PM,31.5,23.0,71,29.80,10.0,SSE,3.5,-,N/A,,Overcast,160,2014-02-20 05:35:00
11:38 PM,30.2,23.0,75,29.80,10.0,SSE,3.5,-,N/A,,Overcast,150,2014-02-20 05:38:00
11:55 PM,32.0,22.8,69,29.81,10.0,Calm,Calm,-,N/A,,Overcast,0,2014-02-20 05:55:00